sat.trackr.live / text

‹ back to catalog

BANDWAGON-2 OBJECT D

NORAD 62380 · 2024-247D

PAYLOAD ACTIVE UNKNOWN

§ Identity

Operator
Country
TBD
Launch date
2024-12-21
Launch site
AFWTR
Launch vehicle
Mass (kg)
RCS (m²)

External: N2YO · Heavens-Above · Gunter

§ Orbital elements

Epoch: 2026-05-25T02:46:54.799392Z

Period
94.09 min
Inclination
44.9960°
Eccentricity
0.0003011
Mean motion
15.30477781 rev/d
Perigee alt
472.3 km
Apogee alt
476.4 km
Semi-major
6,852.5 km
B*
2.6785e-4
RAAN
56.0589°
Arg perigee
130.7658°
Mean anomaly
229.3488°
Rev number
7,946

§ Raw data

BANDWAGON-2 OBJECT D1 62380U 24247D   26145.11591203  .00007749  00000+0  26785-3 0  99952 62380  44.9960  56.0589 0003011 130.7658 229.3488 15.30477781 79466

JSON: /api/v1/satellites/62380 · /tle

For live sub-satellite position, see the globe view (requires WebGL).

§ Visibility from observer

Set your observer location to see the next 7 days of passes ≥ 10°. The values pass through the URL so the page stays shareable.

No JS? Fill the form by hand. The geolocation button needs JavaScript.